Weather Roundup
Issued by NWS

Home | Current Version | Previous Version | Graphics & Text | Print | Product List | Glossary Off
Versions: 1 2 3 4 5 6 7 8 9 10 11 12 13 14 15 16 17 18 19 20 21 22 23 24 25 26 27 28 29 30 31 32 33 34 35 36 37 38 39 40 41 42 43 44 45 46 47 48 49 50

171
NZUS93 KARX 302059
HRRWXR

CURRENT HOURLY OBSERVATIONS ACROSS
MUCH OF THE UPPER MISSISSIPPI VALLEY
NATIONAL WEATHER SERVICE LA CROSSE WI
400 PM CDT SUN APR 30 2017


...SOUTHEAST MINNESOTA...


CITY           SKY/WX    TMP DP  RH WIND       PRES   REMARKS
ROCHESTER      CLOUDY    43  37  79 NE21G35   29.77F
ROCHESTER/MAYO CLOUDY    44  36  73 NE9G25    29.79F
WINONA         CLOUDY    46  37  71 E8G17     29.84S
AUSTIN         CLOUDY    43  36  75 E16G32    29.77R
ALBERT LEA     CLOUDY    43  36  75 E26       29.75S
DODGE CENTER   CLOUDY    45  36  70 NE23G29   29.77F
PRESTON        CLOUDY    42  36  80 NE14G28   29.78F
OWATONNA       CLOUDY    45  36  70 NE22G29   29.78F
FARIBAULT      CLOUDY    45  36  70 NE22G31   29.79F
$$

...ELSEWHERE IN MINNESOTA...


CITY           SKY/WX    TMP DP  RH WIND       PRES   REMARKS
MINNEAPOLIS    CLOUDY    47  33  58 NE15G24   29.86F
INTNL FALLS    SUNNY     57  23  26 E14G22    29.99F
DULUTH         CLOUDY    45  26  47 E20G32    30.00F
RED WING       CLOUDY    48  32  53 E12G17    29.82F
REDWOOD FALLS  LGT RAIN  44  34  67 NE15G26   29.82F
MANKATO        CLOUDY    44  37  76 NE17G29   29.80F
WORTHINGTON    CLOUDY    37  36  96 NE28G38   29.73F WCI  25
FAIRMONT       CLOUDY    42  37  82 NE20      29.76F
$$

...SOUTHWEST WISCONSIN...


CITY           SKY/WX    TMP DP  RH WIND       PRES   REMARKS
LA CROSSE      CLOUDY    46  39  76 NE15      29.82F
PRAIRIE DU CHI CLOUDY    45  38  75 NE10      29.77F
BOSCOBEL       CLOUDY    46  39  76 E12G22    29.78F
LONE ROCK      NOT AVBL
PLATTEVILLE    CLOUDY    44  43  95 NE21G26   29.76F
FORT MC COY    CLOUDY    44  39  83 NE14G20   29.86F
CAMP DOUGLAS   CLOUDY    43  37  81 E17       29.86F
MAUSTON-NEW LI CLOUDY    43  38  82 E8G17     29.86S
VIROQUA        CLOUDY    42  38  88 NE21      29.81F
WIS DELLS      CLOUDY    41  38  88 NE13G22   29.84F
$$

...ELSEWHERE IN WISCONSIN...


CITY           SKY/WX    TMP DP  RH WIND       PRES   REMARKS
MILWAUKEE      CLOUDY    42  40  92 NE17G28   29.84F
MADISON        CLOUDY    43  39  86 NE15      29.82F
GREEN BAY      CLOUDY    40  38  93 NE18G30   29.92F WCI  31
EAU CLAIRE     NOT AVBL
BLACK RVR FLS  CLOUDY    46  36  69 E10       29.86F
MEDFORD        CLOUDY    47  34  62 E15       29.90R
WAUSAU         CLOUDY    43  36  76 E14       29.91R
WIS RAPIDS     CLOUDY    42  37  82 E15       29.90F
MARSHFIELD     CLOUDY    44  36  73 NE16G23   29.87F
RICE LAKE      CLOUDY    49  34  56 N12G21    29.92S
$$

...NORTHEAST IOWA...


CITY           SKY/WX    TMP DP  RH WIND       PRES   REMARKS
WATERLOO       CLOUDY    44  40  85 E24       29.66F
DUBUQUE        CLOUDY    45  42  89 NE17      29.70F
DECORAH        CLOUDY    43  39  87 E14G28    29.74S
MASON CITY     CLOUDY    43  37  79 NE21      29.71F
CHARLES CITY   CLOUDY    45  39  81 NE17G29   29.73S
OELWEIN        MIX PCPN  45  43  93 E23G31    29.70F
$$

...ELSEWHERE IN IOWA...


CITY           SKY/WX    TMP DP  RH WIND       PRES   REMARKS
DES MOINES     LGT RAIN  46  43  89 NE18G28   29.53F FOG
IOWA CITY      LGT RAIN  48  44  86 NE17      29.65F
FORT DODGE     CLOUDY    43  36  75 NE25G35   29.61F
MARSHALLTOWN   CLOUDY    44  43  96 E24G31    29.60F
CEDAR RAPIDS   RAIN      44  44 100 E28G35    29.63F FOG
$$

...NORTHERN ILLINOIS...


CITY           SKY/WX    TMP DP  RH WIND       PRES   REMARKS
CHICAGO-OHARE  DRIZZLE   45  42  89 NE18      29.78F
CHICAGO-MIDWAY CLOUDY    45  44  97 NE17G24   29.78F FOG
MOLINE         CLOUDY    48  45  89 NE20      29.66F FOG
ROCKFORD       CLOUDY    48  44  86 E12G21    29.79F
PEORIA         LGT RAIN  51  51 100 NE14      29.64F
$$

NOTE: "FAIR" INDICATES FEW OR NO CLOUDS BELOW 12,000 FEET WITH NO
SIGNIFICANT WEATHER AND/OR OBSTRUCTIONS TO VISIBILITY. WIND
SPEEDS ARE IN MILES-PER-HOUR.




USA.gov is the U.S. government's official web portal to all federal, state and local government web resources and services.